Погода Петропавловск-Каз.

Погода Петропавловск-Каз. : погода сейчас, прогноз погоды и архив. Всё, что Вы хотите узнать о погоде Петропавловск-Каз.!

Поиск расширенной информации на нашем сайте:

Другие новости

Новости СМИ2

Главная страница сайта

Новости сайта

02.10.2013

Напоминаем, что на нашем новом сайте вы можете получить высокодетализированные прогнозы погоды по пунктам России, СНГ и мира (включающие важные для авиации метеовеличины, такие как направление и скорость ветра, видимость, явления погоды, количество и форма облачности, нижняя и верхняя граница облачности), а также ознакомиться с разнообразными материалами по авиационной метеорологии и подборкой полезных ссылок на эту тему.

Сайт Метеоцентр.Азия посвящён разработке технологий оптимизации авиаметеорологического обслуживания, включая проектирование и перспективное создание нескольких автоматизированных авиаметеорологических систем:
- система выпуска высокодетальных прогностических карт явлений погоды для нижнего воздушного пространства по России и ближнему зарубежью;
- система верификации прогнозов TAF (выпускаемых синоптиками официальных АМСГ РФ и ближнего зарубежья) и AUTOTAF (выпускаемых сайтом Метеоцентр.Азия) - выявление ошибок, онлайн-сопоставление с фактической погодой METAR, автоматическое внесение коррективов в прогнозы при резком отклонении фактической погоды от прогноза, подсчёт оправдываемости прогнозов по элементам и в целом;
- система обработки, анализа и отображения авиаметеорологической информации для применения провайдерами метеорологической информации.


Погода Петропавловск-Каз. - сегодня

Время (UTC), дата Ветер
(°,м/с) 
Видим.   Явления Облачность Т
(°С)
Тd
(°С)
f(%) Тe
(°С)
Pmin
(гПа)
dP
(гПа)
Po
(мм)
O2
(г/м3)
Тmin Tmax R s Состояние
почвы
15 20.05.17 220 (ЮЗ) 10 км    8/5 1000 м средняя, верхняя 
[Sc|Ac trans|Ci fib]
+20.5 +4.7 35 +21  1012.8  -0.8  751  281    +24.4       
18 20.05.17 180 (Ю) н/о    3/1 1000 м средняя 
[Sc|Ac trans]
+14.3 +7.4 63 +16  1013.1  751  286    +24.4       
21 20.05.17 230 (ЮЗ) н/о    ясно 
+13.4 +5.5 59 +14  1012.3  -0.8  750  287           
00 21.05.17 200 (Ю) 10 км    3/0 верхняя 
[Ci fib]
+12.4 +5.8 64 +13  1012.4  750  288           
06 21.05.17 220 (ЮЗ) 10 км    ясно 
+24 +8.3 37 +24  1010.4  -1.2  749  276  +12.3         
09 21.05.17 250 (З) 10 км    4/0 средняя, верхняя 
[Ac trans|Ci fib]
+26.3 +6.5 28 +26  1008.5  -1.8  748  274           
12 21.05.17 220 (ЮЗ) 10 км    8/0 средняя 
[Ac trans]
+25.7 +6.9 30 +26  1007.2  -1.3  747  274           
15 21.05.17 180 (Ю) 10 км    9/6 1000 м средняя 
[Sc|Ac trans]
+23.4 +5.7 32 +23  1005.4  -1.8  745  276    +26.8       
18 21.05.17 190 (Ю) н/о    6/4 1000 м средняя 
[Sc|Ac trans]
+20.7 +6 38 +21  1004.3  -1.3  744  278    +26.8       
21 21.05.17 180 (Ю) н/о    9/9 1000 м 
[Sc]
+19.2 +5.4 40 +20  1003  -1.3  743  279           
00 22.05.17 150 (ЮВ) 10 км    8/0 средняя 
[Ac trans]
+18.7 +5.5 42 +20  1000.3  -2.7  741  279           
09 22.05.17 220 (ЮЗ) 10 км  в посл. час ливневой дождь  8/6 1000 м средняя 
[Sc|Ac trans]
+21.6 +15.4 68 +31  999.2  1.1  741  273           
21 22.05.17 040 (СВ) н/о    10/10 1000 м 
[Sc]
+18 +13.6 75 +25  998.1  -1  740  277           
00 23.05.17 070 (В) 10 км    8/8 600 м кучево-дожд. 
[Cb cap]
+16.2 +13.4 83 +22  995.4  -2.8  738  278           
03 23.05.17 050 (СВ) 4000 м  дымка  10/0 средняя 
[Ac As]
+16.4 +14.5 89 +24  993.1  -2.2  736  277           
06 23.05.17 340 (С) 10 км    10/10 1000 м 
[Sc]
+18.8 +14.2 75 +27  991.2  -1.9  735  274  +16.1         
09 23.05.17 020 (С) 10 км  {ливн. осадки}  4/0 средняя 
[Ac trans]
+22.6 +17.1 71 +36  987.9  -3.1  732  269           
15 23.05.17 310 (СЗ) 7-15{18}  4000 м  слаб. ливневой дождь  10/10 200 м кучево-дожд. 
[Cb cap]
+10.8 +9.2 90 +9  995.9  738  284    +22.9     
18 23.05.17 310 (СЗ) 9-16{19}  н/о  {ливн. осадки}  10/10 600 м кучево-дожд. 
[Cb cap]
+7 +5.4 90 +4  1001.4  5.3  742  291    +22.9     
21 23.05.17 300 (СЗ) 7{19}  н/о    10/10 600 м 
[Sc]
+5.2 +3.5 89 +2  1004.3  2.7  744  294           
03 24.05.17 300 (СЗ) 10 км  в посл. час ливневой дождь  10/10 300 м кучево-дожд. 
[Cb cap]
+5.6 +3.2 85 +4  1006.7  0.7  746  294      0.0     
09 24.05.17 280 (З) 10 км  {ливн. осадки}  8/8 600 м кучево-дожд. 
[Cb cap]
+10.5 +4.2 65 +9  1009.1  0.5  748  289           
12 24.05.17 310 (СЗ) 10 км  в посл. час ливневой дождь  8/6 600 м кучево-дожд., средняя 
[Cb cap|Ac trans]
+11 +4.9 66 +10  1010.3  1.2  749  289           
21 24.05.17 220 (ЮЗ) н/о    5/3 1000 м средняя 
[Sc|Ac trans]
+6.7 +4.4 85 +6  1013  750  294           
00 25.05.17 220 (ЮЗ) 10 км    1/0 верхняя 
[Ci fib]
+7.8 +4.6 80 +7  1012.8  -0.1  750  293           
Время (UTC), дата Ветер
(°,м/с) 
Видим.   Явления Облачность Т
(°С)
Тd
(°С)
f(%) Тe
(°С)
Pmin
(гПа)
dP
(гПа)
Po
(мм)
O2
(г/м3)
Тmin Tmax R s Состояние
почвы

Для получения пояснительной информации подведите курсор к названию столбца.

ПОГОДА Петропавловск-Каз. - архив

Всё, что Вы хотите узнать о погоде Петропавловск-Каз. - удобно и подробно!

Выберите нужную дату (начиная с 1 января 2015* года) и нажмите кнопку "Найти".
Будут отображены архивные сводки погоды по пункту Петропавловск-Каз., начиная с указанной даты.


Отображать данные в формате CSV (для использования в таблицах Excel)


Внимание! Наш архив погоды предназначен исключительно для личного некоммерческого использования в познавательных целях. Если Вам необходимы официальные справки о состоянии погоды (для производственных, юридических, коммерческих и т.п. целей), обращайтесь в органы Росгидромета.

*Примечание: данная дата относится к архиву по метеостанциям СССР (Россия, СНГ, Балтия).
Архив по метеостанциям Зарубежной Европы и Азии (кроме Китая) хранится 10 дней, по другим регионам земного шара (Китай, Африка, Америка, Австралия, Океания) - 1 день.

Петропавловск-Каз. - район местоположения метеостанции


Название, широта, долгота, высота метеостанции:
Петропавловск-Каз. 54.8°ш. 69.2°д. 142 м над ур. моря [Казахстан]

Дополнительная информация

В oтличие oт бoльшинства пoгoдных сайтoв мы публикуем пoдрoбную метеoинфoрмацию в детальнoм прoфессиoнальнoм фoрмате.

Характеристики температуры и влажнoсти вoздуха измеряются на высoте 2 м в тени вдали oт зданий и деревьев.
Скoрoсть ветра измеряется на высoте 10 м (на урoвне рoста челoвека скoрoсть ветра ниже в 1.5-2 раза). Если метеoстанция нахoдится в гoрoде или в лесу, тo скoрoсть ветра занижена на 2-4 м/с пo сравнению с oткрытым местoм. Скoрoсть ветра над акватoриями крупных рек и oзёр, а также на вершинах хoлмoв на 2-5 м/с выше, чем в oбычных услoвиях.
Атмoсфернoе давление в разных тoчках местнoсти мoжет значительнo oтличаться oт давления на метеoстанции, в зависимoсти oт услoвий рельефа (при пoдъёме на 10 м давление пoнижается примернo на 1 мм рт.ст.).